Farmingdale, NY

12:16 AM EDT on April 27, 2017 (GMT -0400)
Republic

Weather History for KFRG - August, 2014

Change the Weather History Date:

Thursday, August 28, 2014

  Actual Average Record
Temperature  
Mean Temperature 74 °F -  
Max Temperature 80 °F 77 °F 87 °F (1999)
Min Temperature 66 °F 63 °F 57 °F (2008)
Cooling Degree Days 9    
Growing Degree Days 24 (Base 50)    
Moisture  
Dew Point 57 °F    
Average Humidity 59    
Maximum Humidity 90    
Minimum Humidity 37    
Precipitation  
Precipitation 0.00 in - - ()
Sea Level Pressure  
Sea Level Pressure 29.90 in    
Wind  
Wind Speed 9 mph (North)    
Max Wind Speed 16 mph    
Max Gust Speed 25 mph    
Visibility 10 miles    
Events      
Averages and records for this station are not official NWS values.
T = Trace of Precipitation, MM = Missing Value Source: NWS Daily Summary

Daily Weather History Graph

Daily Weather History Graph

Search for Another Location

Airport or City:

Trip Planner

Search our weather history database for the weather conditions in past years. The results will help you decide how hot, cold, wet, or windy it might be!

Date:

Astronomy

Aug. 28, 2014 Rise Set
Actual Time 6:16 AM EDT 7:32 PM EDT
Civil Twilight 5:48 AM EDT 8:00 PM EDT
Nautical Twilight 5:14 AM EDT 8:34 PM EDT
Astronomical Twilight 4:38 AM EDT 9:10 PM EDT
Moon 9:07 AM EDT (8/28) 8:53 PM EDT (8/28)
Length of Visible Light 14h 12m
Length of Day
13h 15m
Waxing Crescent, 8% of the Moon is Illuminated
Aug 28
Waxing Crescent
Sep 2
First Quarter
Sep 8
Full
Sep 15
Last Quarter
Sep 24
New

Hourly Weather History & Observations

Time (EDT) Temp. Heat Index Dew Point Humidity Pressure Visibility Wind Dir Wind Speed Gust Speed Precip Events Conditions
12:53 AM 73.0 °F - 68.0 °F 84% 29.87 in 10.0 mi ENE 3.5 mph - N/A   Clear
1:53 AM 73.0 °F - 66.9 °F 81% 29.85 in 10.0 mi North 5.8 mph - N/A   Clear
2:53 AM 71.1 °F - 66.9 °F 87% 29.84 in 10.0 mi North 8.1 mph - N/A   Clear
3:53 AM 71.1 °F - 68.0 °F 90% 29.84 in 10.0 mi NNE 9.2 mph - N/A   Partly Cloudy
4:53 AM 70.0 °F - 61.0 °F 73% 29.85 in 10.0 mi North 6.9 mph - N/A   Clear
5:53 AM 69.1 °F - 59.0 °F 70% 29.86 in 10.0 mi North 8.1 mph - N/A   Clear
6:53 AM 68.0 °F - 59.0 °F 73% 29.87 in 10.0 mi North 6.9 mph - N/A   Clear
7:53 AM 70.0 °F - 59.0 °F 68% 29.88 in 10.0 mi North 11.5 mph - N/A   Clear
8:53 AM 71.1 °F - 57.9 °F 63% 29.90 in 10.0 mi NNW 13.8 mph 23.0 mph N/A   Clear
9:53 AM 72.0 °F - 57.9 °F 61% 29.89 in 10.0 mi North 16.1 mph 25.3 mph N/A   Clear
11:53 AM 75.9 °F - 57.9 °F 54% 29.88 in 10.0 mi NNW 11.5 mph - N/A   Clear
12:53 PM 78.1 °F - 57.0 °F 48% 29.88 in 10.0 mi NNW 13.8 mph 24.2 mph N/A   Partly Cloudy
1:53 PM 78.1 °F - 55.0 °F 45% 29.88 in 10.0 mi North 13.8 mph 19.6 mph N/A   Overcast
2:53 PM 79.0 °F - 55.0 °F 44% 29.87 in 10.0 mi North 10.4 mph 17.3 mph N/A   Mostly Cloudy
3:53 PM 80.1 °F 79.9 °F 53.1 °F 39% 29.87 in 10.0 mi North 12.7 mph 18.4 mph N/A   Scattered Clouds
4:53 PM 78.1 °F - 50.0 °F 37% 29.88 in 10.0 mi North 9.2 mph - N/A   Scattered Clouds
5:53 PM 78.1 °F - 50.0 °F 37% 29.91 in 10.0 mi NNW 11.5 mph - N/A   Partly Cloudy
6:53 PM 75.9 °F - 51.1 °F 42% 29.92 in 10.0 mi North 11.5 mph - N/A   Clear
7:53 PM 73.9 °F - 50.0 °F 43% 29.95 in 10.0 mi North 9.2 mph - N/A   Partly Cloudy
8:53 PM 72.0 °F - 52.0 °F 49% 29.98 in 10.0 mi NNW 6.9 mph - N/A   Clear
9:53 PM 71.1 °F - 52.0 °F 51% 30.01 in 10.0 mi North 8.1 mph - N/A   Mostly Cloudy
10:53 PM 69.1 °F - 51.1 °F 53% 30.03 in 10.0 mi NNW 9.2 mph - N/A   Clear
11:53 PM 66.9 °F - 52.0 °F 59% 30.05 in 10.0 mi North 9.2 mph - N/A   Clear